Location: The Stocker AstroScience Center
(25.7579°N, 80.3725°W)
Time: 14:22:17

ISS - Pass Details

Date: 22 February 2018
Orbit: 403 x 406 km, 51.6° (Epoch: 18 March)

Event Time Altitude Azimuth Distance (km) Brightness Sun altitude
Rises 06:39:41 0° 210° (SSW) 2,309 -0.2 -3.3°
Reaches altitude 10° 06:41:47 10° 204° (SSW) 1,452 -1.2 -2.9°
Maximum altitude 06:44:56 47° 129° (SE) 540 -2.6 -2.2°
Drops below altitude 10° 06:48:06 10° 54° (NE) 1,456 -0.3 -1.5°
Sets 06:50:13 0° 48° (NE) 2,317 0.6 -1.0°
